Beaufort, NC

12:02 AM EDT on July 22, 2017 (GMT -0400)
Smith

Weather History for KMRH - November, 2013

Change the Weather History Date:

Friday, November 15, 2013

  Actual Average Record
Temperature  
Mean Temperature 54 °F -  
Max Temperature 69 °F 65 °F 78 °F (1978)
Min Temperature 39 °F 43 °F 22 °F (1969)
Degree Days  
Heating Degree Days 11    
Growing Degree Days 4 (Base 50)    
Moisture  
Dew Point 48 °F    
Average Humidity 78    
Maximum Humidity 97    
Minimum Humidity 44    
Precipitation  
Precipitation 0.19 in - - ()
Sea Level Pressure  
Sea Level Pressure 30.31 in    
Wind  
Wind Speed 2 mph (ENE)    
Max Wind Speed 7 mph    
Max Gust Speed -    
Visibility 10 miles    
Events Rain    
Averages and records for this station are not official NWS values.
T = Trace of Precipitation, MM = Missing Value Source: NWS Daily Summary

Daily Weather History Graph

Daily Weather History Graph

Search for Another Location

Airport or City:

Trip Planner

Search our weather history database for the weather conditions in past years. The results will help you decide how hot, cold, wet, or windy it might be!

Date:

Astronomy

Nov. 15, 2013 Rise Set
Actual Time 6:40 AM EST 5:01 PM EST
Civil Twilight 6:13 AM EST 5:28 PM EST
Nautical Twilight 5:43 AM EST 5:58 PM EST
Astronomical Twilight 5:13 AM EST 6:28 PM EST
Moon 3:53 PM EST (11/15) 4:39 AM EST (11/15)
Length of Visible Light 11h 14m
Length of Day
10h 20m
Waxing Gibbous, 96% of the Moon is Illuminated
Nov 15
Waxing Gibbous
Nov 17
Full
Nov 25
Last Quarter
Dec 2
New
Dec 9
First Quarter

Hourly Weather History & Observations

Time (EST) Temp. Windchill Dew Point Humidity Pressure Visibility Wind Dir Wind Speed Gust Speed Precip Events Conditions
12:58 AM 42.1 °F - 37.9 °F 85% 30.36 in 10.0 mi Calm Calm - N/A   Clear
1:58 AM 39.9 °F - 37.9 °F 93% 30.36 in 10.0 mi Calm Calm - N/A   Clear
2:58 AM 39.9 °F - 37.9 °F 93% 30.35 in 10.0 mi Calm Calm - N/A   Clear
3:58 AM 39.9 °F - 39.0 °F 97% 30.35 in 10.0 mi Calm Calm - N/A   Clear
4:58 AM 41.0 °F - 39.0 °F 93% 30.36 in 10.0 mi Calm Calm - N/A   Clear
5:58 AM 39.9 °F - 37.9 °F 93% 30.37 in 10.0 mi Calm Calm - N/A   Clear
6:58 AM 41.0 °F 39.0 °F 39.9 °F 96% 30.37 in 10.0 mi NNE 3.5 mph - N/A   Clear
7:58 AM 48.0 °F - 43.0 °F 83% 30.38 in 10.0 mi NE 3.5 mph - N/A   Clear
8:58 AM 55.0 °F - 46.0 °F 72% 30.39 in 10.0 mi ENE 3.5 mph - N/A   Clear
9:58 AM 60.1 °F - 46.9 °F 62% 30.39 in 10.0 mi NE 3.5 mph - N/A   Clear
10:58 AM 64.0 °F - 48.0 °F 56% 30.37 in 10.0 mi East 4.6 mph - N/A   Clear
11:58 AM 68.0 °F - 50.0 °F 52% 30.33 in 10.0 mi East 5.8 mph - N/A   Clear
12:58 PM 69.1 °F - 46.0 °F 44% 30.30 in 10.0 mi Variable 4.6 mph - N/A   Clear
1:58 PM 66.9 °F - 48.0 °F 51% 30.27 in 10.0 mi East 6.9 mph - N/A   Clear
2:58 PM 64.0 °F - 52.0 °F 65% 30.28 in 10.0 mi East 4.6 mph - N/A   Clear
3:58 PM 62.1 °F - 54.0 °F 75% 30.26 in 10.0 mi East 5.8 mph - N/A   Clear
4:58 PM 62.1 °F - 55.0 °F 78% 30.25 in 10.0 mi ENE 4.6 mph - N/A   Overcast
5:58 PM 61.0 °F - 54.0 °F 78% 30.24 in 10.0 mi ENE 3.5 mph - N/A   Clear
6:58 PM 62.1 °F - 52.0 °F 70% 30.24 in 10.0 mi East 4.6 mph - N/A   Overcast
7:58 PM 62.1 °F - 54.0 °F 75% 30.25 in 10.0 mi East 3.5 mph - N/A   Overcast
8:58 PM 62.1 °F - 55.9 °F 80% 30.24 in 10.0 mi Calm Calm - N/A   Overcast
9:58 PM 62.1 °F - 60.1 °F 93% 30.26 in 5.0 mi SE 5.8 mph - 0.08 in Rain Rain
10:58 PM 62.1 °F - 60.1 °F 93% 30.25 in 7.0 mi East 5.8 mph - 0.04 in Rain Light Rain
11:58 PM 61.0 °F - 60.1 °F 97% 30.24 in 8.0 mi East 5.8 mph - 0.07 in Rain Light Rain